Satellite: NOAA-11 Catalog number: 19531 Epoch time: 07255.32746152 Element set: 0838 Inclination: 098.8106 deg RA of node: 343.4028 deg Eccentricity: 0.0011953 Arg of perigee: 139.4069 deg Mean anomaly: 220.7999 deg Mean motion: 14.14849713 rev/day Decay rate: -2.54e-06 rev/day^2 Epoch rev: 97847 Checksum: 333
Satellite: NOAA-12 Catalog number: 21263 Epoch time: 07255.54839079 Element set: 0338 Inclination: 098.7583 deg RA of node: 252.6660 deg Eccentricity: 0.0011899 Arg of perigee: 210.8782 deg Mean anomaly: 149.1724 deg Mean motion: 14.25492475 rev/day Decay rate: -1.05e-06 rev/day^2 Epoch rev: 84869 Checksum: 341
Satellite: MET-3/5 Catalog number: 21655 Epoch time: 07255.91722057 Element set: 0386 Inclination: 082.5567 deg RA of node: 300.9706 deg Eccentricity: 0.0013362 Arg of perigee: 355.4730 deg Mean anomaly: 004.6269 deg Mean motion: 13.17012312 rev/day Decay rate: 5.1e-07 rev/day^2 Epoch rev: 77295 Checksum: 291
Satellite: MET-2/21 Catalog number: 22782 Epoch time: 07255.72555987 Element set: 0931 Inclination: 082.5522 deg RA of node: 332.4756 deg Eccentricity: 0.0022461 Arg of perigee: 355.2294 deg Mean anomaly: 004.8659 deg Mean motion: 13.83616722 rev/day Decay rate: 2.3e-07 rev/day^2 Epoch rev: 70862 Checksum: 315
Satellite: OKEAN-4 Catalog number: 23317 Epoch time: 07256.73270437 Element set: 370 Inclination: 082.5390 deg RA of node: 213.9191 deg Eccentricity: 0.0021174 Arg of perigee: 325.3447 deg Mean anomaly: 034.6408 deg Mean motion: 14.82532764 rev/day Decay rate: 2.44e-06 rev/day^2 Epoch rev: 69717 Checksum: 296
Satellite: NOAA-14 Catalog number: 23455 Epoch time: 07255.76907738 Element set: 0815 Inclination: 098.9823 deg RA of node: 322.3902 deg Eccentricity: 0.0009095 Arg of perigee: 207.5793 deg Mean anomaly: 152.4889 deg Mean motion: 14.13723704 rev/day Decay rate: -2.86e-06 rev/day^2 Epoch rev: 65501 Checksum: 333
Satellite: SICH-1 Catalog number: 23657 Epoch time: 07256.69914512 Element set: 170 Inclination: 082.5323 deg RA of node: 354.9077 deg Eccentricity: 0.0022770 Arg of perigee: 315.7274 deg Mean anomaly: 044.2133 deg Mean motion: 14.81510993 rev/day Decay rate: 1.8e-07 rev/day^2 Epoch rev: 64913 Checksum: 295
Satellite: NOAA-15 Catalog number: 25338 Epoch time: 07255.89186485 Element set: 0157 Inclination: 098.5372 deg RA of node: 250.1282 deg Eccentricity: 0.0011381 Arg of perigee: 129.7500 deg Mean anomaly: 230.4689 deg Mean motion: 14.24664040 rev/day Decay rate: 3.4e-07 rev/day^2 Epoch rev: 48517 Checksum: 306
Satellite: RESURS Catalog number: 25394 Epoch time: 07255.74962634 Element set: 0735 Inclination: 098.4318 deg RA of node: 306.7779 deg Eccentricity: 0.0001194 Arg of perigee: 336.7584 deg Mean anomaly: 023.3541 deg Mean motion: 14.24144927 rev/day Decay rate: 3.0e-08 rev/day^2 Epoch rev: 47681 Checksum: 317
Satellite: FENGYUN1 Catalog number: 25730 Epoch time: 07255.92558560 Element set: 0225 Inclination: 098.6948 deg RA of node: 236.4925 deg Eccentricity: 0.0017502 Arg of perigee: 240.0604 deg Mean anomaly: 119.8826 deg Mean motion: 14.07603819 rev/day Decay rate: 5.86e-06 rev/day^2 Epoch rev: 42981 Checksum: 318
Satellite: OKEAN-0 Catalog number: 25860 Epoch time: 07255.63020897 Element set: 0156 Inclination: 097.7359 deg RA of node: 253.8132 deg Eccentricity: 0.0001911 Arg of perigee: 078.6351 deg Mean anomaly: 281.5068 deg Mean motion: 14.73472706 rev/day Decay rate: 4.2e-07 rev/day^2 Epoch rev: 43837 Checksum: 306
Satellite: NOAA-16 Catalog number: 26536 Epoch time: 07255.60441575 Element set: 0595 Inclination: 099.1254 deg RA of node: 234.1057 deg Eccentricity: 0.0009709 Arg of perigee: 290.2583 deg Mean anomaly: 069.7532 deg Mean motion: 14.12450001 rev/day Decay rate: -2.10e-06 rev/day^2 Epoch rev: 35944 Checksum: 294
Satellite: NOAA-17 Catalog number: 27453 Epoch time: 07255.79362363 Element set: 0597 Inclination: 098.5731 deg RA of node: 322.9652 deg Eccentricity: 0.0011607 Arg of perigee: 194.5738 deg Mean anomaly: 165.5108 deg Mean motion: 14.23908697 rev/day Decay rate: 2.29e-06 rev/day^2 Epoch rev: 27118 Checksum: 339
Satellite: NOAA-18 Catalog number: 28654 Epoch time: 07255.82350562 Element set: 0121 Inclination: 098.8323 deg RA of node: 195.6534 deg Eccentricity: 0.0014825 Arg of perigee: 024.1515 deg Mean anomaly: 336.0369 deg Mean motion: 14.11094402 rev/day Decay rate: 3.47e-06 rev/day^2 Epoch rev: 11921 Checksum: 286
/EX SB KEPS @ AMSAT $ORB07256.M Orbital Elements 07256.MISC
HR AMSAT ORBITAL ELEMENTS FOR MANNED AND MISCELLANEOUS SATELLITES FROM WA5QGD FORT WORTH,TX September 13, 2007 Send Subscribe/unsubscribe to KEPS at http://www.amsat.org/mailman/listinfo/keps BID: ORB07256.M TO ALL RADIO AMATEURS BT
Satellite: HUBBLE Catalog number: 20580 Epoch time: 07256.61820723 Element set: 960 Inclination: 028.4688 deg RA of node: 333.4601 deg Eccentricity: 0.0003546 Arg of perigee: 315.8332 deg Mean anomaly: 044.1975 deg Mean motion: 15.00278185 rev/day Decay rate: 3.36e-06 rev/day^2 Epoch rev: 75325 Checksum: 288
Satellite: UARS Catalog number: 21701 Epoch time: 07256.59005410 Element set: 167 Inclination: 056.9763 deg RA of node: 290.1037 deg Eccentricity: 0.0091288 Arg of perigee: 007.1458 deg Mean anomaly: 353.0875 deg Mean motion: 15.48836512 rev/day Decay rate: 2.998e-05 rev/day^2 Epoch rev: 87944 Checksum: 322
Satellite: PO-34 Catalog number: 25520 Epoch time: 07254.35640156 Element set: 0823 Inclination: 028.4599 deg RA of node: 252.0024 deg Eccentricity: 0.0005719 Arg of perigee: 116.6844 deg Mean anomaly: 243.4336 deg Mean motion: 15.17046199 rev/day Decay rate: 4.13e-06 rev/day^2 Epoch rev: 49062 Checksum: 293
Satellite: ISS Catalog number: 25544 Epoch time: 07256.83809659 Element set: 973 Inclination: 051.6372 deg RA of node: 006.4417 deg Eccentricity: 0.0009025 Arg of perigee: 005.7420 deg Mean anomaly: 139.0948 deg Mean motion: 15.76787601 rev/day Decay rate: 1.1766e-04 rev/day^2 Epoch rev: 50476 Checksum: 319
Satellite: OO-38 Catalog number: 26063 Epoch time: 07255.62405399 Element set: 0009 Inclination: 100.2292 deg RA of node: 274.4055 deg Eccentricity: 0.0036542 Arg of perigee: 274.1572 deg Mean anomaly: 085.5422 deg Mean motion: 14.35814614 rev/day Decay rate: -1.8e-07 rev/day^2 Epoch rev: 39959 Checksum: 304
Satellite: UWE-1 Catalog number: 28892 Epoch time: 07255.34644328 Element set: 0848 Inclination: 098.1192 deg RA of node: 150.2118 deg Eccentricity: 0.0016741 Arg of perigee: 197.2568 deg Mean anomaly: 162.8056 deg Mean motion: 14.59537934 rev/day Decay rate: -4.9e-07 rev/day^2 Epoch rev: 09992 Checksum: 340
Satellite: CO-58 Catalog number: 28895 Epoch time: 07255.66517273 Element set: 0825 Inclination: 098.1202 deg RA of node: 150.7692 deg Eccentricity: 0.0017237 Arg of perigee: 196.6540 deg Mean anomaly: 163.4107 deg Mean motion: 14.59582804 rev/day Decay rate: 9.7e-07 rev/day^2 Epoch rev: 09985 Checksum: 345
Satellite: NCUBE2 Catalog number: 28897 Epoch time: 07256.27856318 Element set: 351 Inclination: 098.1191 deg RA of node: 151.3183 deg Eccentricity: 0.0016615 Arg of perigee: 196.2321 deg Mean anomaly: 163.8349 deg Mean motion: 14.59747065 rev/day Decay rate: 8.6e-07 rev/day^2 Epoch rev: 9222 Checksum: 320
Satellite: NMARS Catalog number: 29662 Epoch time: 07126.39603970 Element set: 263 Inclination: 051.6121 deg RA of node: 302.3682 deg Eccentricity: 0.0004459 Arg of perigee: 252.1654 deg Mean anomaly: 110.7411 deg Mean motion: 16.47981436 rev/day Decay rate: 7.031946e-02 rev/day^2 Epoch rev: 2165 Checksum: 289
Satellite: FCAL Catalog number: 29667 Epoch time: 07256.71231781 Element set: 315 Inclination: 051.6330 deg RA of node: 349.0061 deg Eccentricity: 0.0013354 Arg of perigee: 336.3252 deg Mean anomaly: 023.7144 deg Mean motion: 15.91285209 rev/day Decay rate: 1.7475e-04 rev/day^2 Epoch rev: 4208 Checksum: 278
Satellite: FALCON Catalog number: 30776 Epoch time: 07256.75066074 Element set: 139 Inclination: 035.4341 deg RA of node: 035.7601 deg Eccentricity: 0.0000297 Arg of perigee: 194.2640 deg Mean anomaly: 165.8068 deg Mean motion: 15.02762921 rev/day Decay rate: 1.97e-06 rev/day^2 Epoch rev: 2838 Checksum: 293
Satellite: MAST Catalog number: 31126 Epoch time: 07256.72671387 Element set: 132 Inclination: 098.0764 deg RA of node: 326.7209 deg Eccentricity: 0.0095675 Arg of perigee: 111.2143 deg Mean anomaly: 249.9276 deg Mean motion: 14.53363899 rev/day Decay rate: 3.44e-06 rev/day^2 Epoch rev: 2171 Checksum: 309
Satellite: CAPE1 Catalog number: 31130 Epoch time: 07255.77672855 Element set: 0114 Inclination: 098.0753 deg RA of node: 325.4573 deg Eccentricity: 0.0104005 Arg of perigee: 115.1564 deg Mean anomaly: 246.0462 deg Mean motion: 14.51883148 rev/day Decay rate: 3.0e-08 rev/day^2 Epoch rev: 02132 Checksum: 264
/EX